Location: Cisewo
(53.3833°N, 14.9000°E)
Time: 13:42:58
(UTC+00:00)

Cosmos 676 Rocket - Pass Details

Date: 18 April 2021
Orbit: 755 x 783 km, 74.0° (Epoch: 16 May)

Event Time Altitude Azimuth Distance (km) Brightness Sun altitude
Exits shadow 20:26:56 32° 139° (SE) 1,274 4.6 -17.8°
Maximum altitude 20:28:17 38° 105° (ESE) 1,141 4.5 -17.9°
Drops below altitude 10° 20:33:04 10° 38° (NE) 2,293 6.6 -18.3°
Sets 20:35:33 0° 31° (NNE) 3,222 7.5 -18.6°
